Copper Harbor, MI

7:16 AM EDT on June 28, 2017 (GMT -0400)
Copper Harbor

Weather History for KP59 - May, 2013

Change the Weather History Date:

Wednesday, May 1, 2013

  Actual Average Record
Temperature  
Mean Temperature 47 °F -  
Max Temperature 59 °F 51 °F 70 °F (1999)
Min Temperature 35 °F 35 °F 30 °F (2002)
Degree Days  
Heating Degree Days 18    
Moisture  
Dew Point 32 °F    
Average Humidity 65    
Maximum Humidity 93    
Minimum Humidity 28    
Precipitation  
Precipitation 0.00 in - - ()
Sea Level Pressure  
Sea Level Pressure 30.17 in    
Wind  
Wind Speed 7 mph (NW)    
Max Wind Speed 14 mph    
Max Gust Speed 21 mph    
Averages and records for this station are not official NWS values.
T = Trace of Precipitation, MM = Missing Value Source: NWS Daily Summary

Daily Weather History Graph

Daily Weather History Graph

Search for Another Location

Airport or City:

Trip Planner

Search our weather history database for the weather conditions in past years. The results will help you decide how hot, cold, wet, or windy it might be!

Date:

Astronomy

May. 01, 2013 Rise Set
Actual Time 6:34 AM EDT 9:03 PM EDT
Civil Twilight 6:00 AM EDT 9:38 PM EDT
Nautical Twilight 5:17 AM EDT 10:21 PM EDT
Astronomical Twilight 4:27 AM EDT 11:11 PM EDT
Moon 2:14 AM EDT (5/1) 12:12 PM EDT (5/1)
Length of Visible Light 15h 37m
Length of Day
14h 29m
Waning Gibbous, 59% of the Moon is Illuminated
May 1
Waning Gibbous
May 2
Last Quarter
May 9
New
May 18
First Quarter
May 25
Full

Hourly Weather History & Observations

Time (EDT) Temp. Windchill Dew Point Humidity Pressure Visibility Wind Dir Wind Speed Gust Speed Precip Events Conditions
12:51 AM 59.0 °F - 26.1 °F 28% 29.81 in - Variable 4.6 mph - N/A   Unknown
1:51 AM 53.1 °F - 30.0 °F 41% 29.86 in - SW 6.9 mph - N/A   Unknown
2:51 AM 53.1 °F - 28.9 °F 40% 29.90 in - Calm Calm - N/A   Unknown
3:51 AM 51.1 °F - 30.0 °F 44% 29.93 in - WSW 4.6 mph - N/A   Unknown
4:51 AM 48.9 °F - 30.9 °F 50% 29.96 in - Calm Calm - N/A   Unknown
5:51 AM 48.9 °F - 32.0 °F 52% 29.96 in - West 4.6 mph - N/A   Unknown
6:51 AM 50.0 °F - 34.0 °F 54% 30.02 in - West 6.9 mph - N/A   Unknown
7:51 AM 48.9 °F - 34.0 °F 56% 30.04 in - NW 5.8 mph - N/A   Unknown
8:51 AM 48.0 °F - 34.0 °F 58% 30.06 in - WNW 4.6 mph - N/A   Unknown
9:51 AM 46.0 °F 41.0 °F 34.0 °F 63% 30.15 in - NNW 10.4 mph - N/A   Unknown
10:51 AM 43.0 °F 36.8 °F 35.1 °F 74% 30.21 in - NNW 11.5 mph 17.3 mph N/A   Unknown
11:51 AM 42.1 °F 37.1 °F 35.1 °F 76% 30.22 in - NNW 8.1 mph - N/A   Unknown
12:51 PM 43.0 °F 37.7 °F 33.1 °F 68% 30.23 in - NNW 9.2 mph 17.3 mph N/A   Unknown
1:51 PM 43.0 °F 37.2 °F 30.9 °F 62% 30.23 in - NNW 10.4 mph - N/A   Unknown
2:51 PM 39.9 °F 33.4 °F 32.0 °F 73% 30.26 in - NNW 10.4 mph 19.6 mph N/A   Unknown
3:51 PM 39.9 °F 34.5 °F 30.9 °F 70% 30.30 in - NNW 8.1 mph 17.3 mph N/A   Unknown
4:51 PM 39.0 °F 31.8 °F 30.0 °F 70% 30.33 in - NNW 11.5 mph 18.4 mph N/A   Unknown
5:51 PM 39.0 °F 34.0 °F 30.9 °F 73% 30.36 in - NNW 6.9 mph 17.3 mph N/A   Unknown
6:51 PM 37.0 °F 28.5 °F 32.0 °F 82% 30.37 in - NNW 13.8 mph - N/A   Unknown
7:51 PM 36.0 °F 29.6 °F 33.1 °F 89% 30.40 in - NNW 8.1 mph 20.7 mph N/A   Unknown
8:51 PM 35.1 °F 25.9 °F 33.1 °F 92% 30.40 in - NNW 13.8 mph 20.7 mph N/A   Unknown
9:51 PM 36.0 °F 27.5 °F 34.0 °F 93% 30.43 in - North 12.7 mph - N/A   Unknown
10:51 PM 36.0 °F 29.0 °F 30.9 °F 82% 30.45 in - NNW 9.2 mph 18.4 mph N/A   Unknown